Torna al catalogo

STARLINK-35348

AttivoComunicazioniVLEO
NORAD 65904·PAYLOAD·🇺🇸 United States

Lanciato Oct 7, 2025 da Cape Canaveral Space Force Station

Loading…

Prossimi Passaggi (prossime 24 ore)

TLE

AggiornatoSource: CelesTrak SupGP

Epoca: Sep 15, 2026, 03:34 UTC

1 65904C 25224Y   26258.14909722 -.00069789  00000+0 -20622-2 0  2588
2 65904  53.1578 206.8437 0001347  83.5581 308.9473 15.34422055    16

Traccia STARLINK-35348 in tempo reale con AllMySat

Download on the App Store